Total_Precipitation_Accumulation
0.00 0.02 0.34 0.17 0.02 0.01 0.01 0.01 0.03 0.05 0.03 0.02 0.00 0.01 0.00 0.00 0.00 0.02 0.05 0.02 0.02 0.01 0.02 0.08 0.05 0.07 0.23 0.27 0.24 0.28 0.14 0.15 0.12 0.03 0.01 0.03 0.03 0.04 0.03 0.07 0.07 0.05 0.13
0.00 0.01 0.27 0.15 0.01 0.01 0.01 0.02 0.03 0.04 0.03 0.02 0.01 0.01 0.00 0.00 0.00 0.02 0.05 0.05 0.05 0.05 0.08 0.16 0.09 0.18 0.27 0.46 0.61 0.26 0.17 0.12 0.06 0.01 0.02 0.03 0.09 0.08 0.07 0.13 0.08 0.12 0.24
0.00 0.00 0.17 0.11 0.01 0.01 0.00 0.03 0.01 0.00 0.01 0.03 0.01 0.00 0.00 0.00 0.01 0.05 0.05 0.10 0.12 0.05 0.04 0.04 0.10 0.22 0.28 0.31 0.19 0.05 0.08 0.25 0.28 0.16 0.07 0.01 0.04 0.09 0.12 0.17 0.06 0.08 0.11
0.00 0.00 0.02 0.05 0.01 0.00 0.00 0.01 0.00 0.00 0.01 0.00 0.00 0.00 0.00 0.01 0.02 0.05 0.11 0.18 0.15 0.08 0.03 0.09 0.16 0.14 0.11 0.15 0.12 0.13 0.17 0.28 0.25 0.33 0.13 0.01 0.01 0.15 0.12 0.11 0.07 0.09 0.07
0.00 0.00 0.01 0.02 0.00 0.00 0.00 0.00 0.01 0.03 0.01 0.00 0.00 0.01 0.01 0.00 0.00 0.02 0.06 0.09 0.14 0.08 0.08 0.10 0.15 0.11 0.08 0.10 0.15 0.23 0.18 0.16 0.32 0.62 0.07 0.03 0.02 0.13 0.10 0.07 0.07 0.08 0.12
0.00 0.00 0.01 0.01 0.00 0.00 0.00 0.00 0.02 0.03 0.01 0.01 0.01 0.02 0.01 0.01 0.02 0.05 0.07 0.05 0.03 0.05 0.09 0.13 0.10 0.11 0.10 0.11 0.13 0.12 0.08 0.08 0.12 0.10 0.04 0.04 0.02 0.05 0.15 0.18 0.13 0.07 0.12
0.00 0.00 0.01 0.01 0.01 0.01 0.00 0.01 0.02 0.03 0.02 0.01 0.01 0.02 0.02 0.01 0.01 0.03 0.04 0.05 0.11 0.06 0.09 0.08 0.07 0.09 0.09 0.08 0.04 0.07 0.08 0.07 0.05 0.03 0.09 0.10 0.07 0.16 0.21 0.12 0.06 0.08 0.11
0.00 0.01 0.02 0.01 0.01 0.01 0.01 0.02 0.02 0.05 0.02 0.02 0.03 0.03 0.03 0.01 0.01 0.00 0.02 0.04 0.13 0.09 0.08 0.04 0.03 0.03 0.07 0.08 0.01 0.14 0.38 0.19 0.03 0.03 0.04 0.05 0.13 0.22 0.21 0.05 0.04 0.10 0.14
0.00 0.00 0.02 0.01 0.01 0.01 0.02 0.03 0.04 0.04 0.02 0.02 0.12 0.05 0.06 0.07 0.18 0.12 0.04 0.01 0.01 0.12 0.05 0.08 0.10 0.09 0.05 0.04 0.03 0.07 0.30 0.38 0.10 0.02 0.00 0.01 0.13 0.25 0.12 0.05 0.10 0.18 0.16
0.04 0.00 0.01 0.01 0.00 0.01 0.02 0.04 0.05 0.03 0.02 0.03 0.07 0.06 0.18 0.19 0.52 0.48 0.13 0.02 0.00 0.05 0.05 0.05 0.07 0.09 0.10 0.06 0.05 0.04 0.22 0.44 0.17 0.03 0.01 0.02 0.26 0.48 0.11 0.07 0.14 0.19 0.11
0.02 0.01 0.00 0.00 0.00 0.01 0.01 0.02 0.10 0.06 0.04 0.06 0.05 0.02 0.11 0.31 0.45 0.50 0.37 0.05 0.01 0.03 0.06 0.08 0.04 0.01 0.06 0.11 0.08 0.07 0.18 0.56 0.23 0.09 0.14 0.19 0.30 0.29 0.14 0.26 0.39 0.31 0.11
0.01 0.01 0.00 0.00 0.00 0.01 0.01 0.00 0.07 0.08 0.07 0.08 0.09 0.02 0.13 0.26 0.22 0.13 0.24 0.11 0.03 0.03 0.15 0.25 0.13 0.02 0.06 0.19 0.26 0.24 0.26 0.70 0.80 0.47 0.18 0.34 0.41 0.27 0.29 0.30 0.42 0.54 0.19
0.00 0.00 0.00 0.00 0.00 0.00 0.00 0.00 0.02 0.04 0.06 0.02 0.11 0.01 0.04 0.10 0.05 0.03 0.07 0.06 0.02 0.16 0.28 0.19 0.27 0.19 0.24 0.19 0.32 0.33 0.24 0.28 1.32 0.64 0.11 0.25 0.53 0.52 0.44 0.31 0.36 0.47 0.28
0.00 0.00 0.00 0.00 0.00 0.00 0.00 0.00 0.00 0.00 0.03 0.00 0.05 0.04 0.02 0.00 0.01 0.00 0.01 0.00 0.00 0.04 0.21 0.17 0.22 0.15 0.17 0.29 0.13 0.24 0.31 0.73 0.31 0.30 0.07 0.16 0.43 0.57 0.37 0.31 0.31 0.42 0.36
0.00 0.00 0.00 0.00 0.00 0.00 0.00 0.00 0.00 0.00 0.00 0.00 0.02 0.08 0.03 0.01 0.00 0.00 0.00 0.01 0.00 0.00 0.03 0.09 0.47 0.31 0.51 0.64 0.17 0.18 0.25 0.43 0.13 0.14 0.09 0.13 0.33 0.53 0.38 0.32 0.33 0.29 0.26
0.00 0.00 0.00 0.00 0.00 0.00 0.00 0.00 0.00 0.00 0.00 0.00 0.00 0.06 0.08 0.01 0.09 0.08 0.09 0.14 0.09 0.02 0.00 0.05 0.26 0.39 0.40 0.32 0.31 0.20 0.17 0.28 0.33 0.21 0.14 0.12 0.40 0.62 0.70 0.52 0.17 0.09 0.15
0.00 0.00 0.00 0.00 0.00 0.00 0.00 0.00 0.00 0.00 0.01 0.04 0.03 0.01 0.06 0.05 0.18 0.16 0.08 0.11 0.10 0.10 0.09 0.17 0.25 0.37 0.45 0.40 0.69 0.36 0.39 0.28 0.33 0.28 0.31 0.19 0.15 0.32 0.47 0.26 0.21 0.13 0.12
0.00 0.00 0.05 0.01 0.00 0.00 0.00 0.01 0.03 0.01 0.00 0.12 0.09 0.00 0.02 0.11 0.32 0.40 0.35 0.34 0.48 0.25 0.26 0.40 0.77 0.75 0.69 0.55 0.73 0.63 0.51 0.13 0.15 0.22 0.43 0.37 0.31 0.11 0.19 0.18 0.16 0.08 0.10
0.02 0.04 0.11 0.02 0.00 0.00 0.00 0.01 0.02 0.06 0.00 0.11 0.21 0.08 0.03 0.05 0.29 0.42 0.48 0.45 0.43 0.11 0.30 0.74 0.71 0.73 1.03 0.95 0.76 0.62 0.34 0.35 0.42 0.53 0.75 0.39 0.28 0.10 0.03 0.12 0.13 0.06 0.04
0.05 0.05 0.02 0.00 0.00 0.00 0.01 0.02 0.02 0.03 0.04 0.05 0.15 0.10 0.11 0.15 0.04 0.30 0.36 0.57 0.64 0.27 0.68 0.76 1.03 0.62 0.73 1.08 1.15 0.80 0.41 0.42 0.37 0.51 0.77 0.47 0.20 0.06 0.06 0.07 0.04 0.02 0.03
0.04 0.04 0.00 0.00 0.02 0.01 0.02 0.02 0.01 0.02 0.06 0.01 0.02 0.12 0.21 0.18 0.30 0.44 0.65 0.75 0.45 0.51 0.58 0.50 0.54 0.66 0.71 1.09 1.62 0.89 0.51 0.61 0.41 0.28 0.64 0.44 0.36 0.04 0.06 0.12 0.02 0.00 0.01
0.03 0.04 0.02 0.00 0.02 0.03 0.03 0.08 0.09 0.17 0.22 0.26 0.15 0.20 0.36 0.35 0.38 0.27 0.55 0.50 0.30 0.26 0.11 0.06 0.31 0.73 1.00 0.77 1.06 0.87 0.61 0.66 0.65 0.30 0.28 0.28 0.40 0.26 0.09 0.05 0.00 0.00 0.00
0.03 0.02 0.02 0.03 0.02 0.13 0.13 0.12 0.21 0.32 0.31 0.40 0.68 0.53 0.35 0.30 0.23 0.17 0.30 0.35 0.31 0.31 0.38 0.41 0.42 0.40 1.06 0.80 0.89 0.86 0.60 0.49 0.46 0.62 0.31 0.20 0.38 0.44 0.10 0.05 0.01 0.00 0.00
0.03 0.02 0.01 0.07 0.08 0.20 0.21 0.16 0.15 0.08 0.15 0.18 0.27 0.49 0.65 0.24 0.05 0.06 0.28 0.45 0.72 0.46 0.37 0.36 0.37 0.41 0.60 0.69 0.53 0.45 0.41 0.60 0.52 0.52 0.49 0.35 0.37 0.40 0.16 0.01 0.01 0.00 0.00
0.01 0.01 0.02 0.07 0.07 0.25 0.23 0.13 0.15 0.08 0.10 0.22 0.26 0.21 0.21 0.28 0.15 0.11 0.18 0.39 0.39 0.17 0.18 0.16 0.22 0.33 0.33 0.60 0.64 0.68 0.65 0.67 0.62 0.47 0.53 0.35 0.27 0.33 0.20 0.01 0.00 0.00 0.00
0.01 0.00 0.01 0.04 0.07 0.19 0.13 0.09 0.15 0.26 0.17 0.46 0.43 0.41 0.27 0.19 0.19 0.20 0.18 0.16 0.15 0.10 0.15 0.39 0.51 0.40 0.47 0.63 0.74 0.70 0.51 0.51 0.62 0.47 0.31 0.36 0.17 0.23 0.21 0.03 0.00 0.00 0.00